| time (UTC) | temp F | wind direction | speed MPH | gust MPH | rain 1hr in | rain 24hr in | rain mn in | humidity % | barometer mb |
| 20260831112804 | 49 | 198 | 5.0 | 8.0 | 0.00 | 0.00 | 0.00 | 83 | 1002.5 |
| 20260831112307 | 49 | 213 | 5.0 | 8.0 | 0.00 | 0.00 | 0.00 | 83 | 1002.5 |
| 20260831111804 | 49 | 210 | 6.0 | 9.0 | 0.00 | 0.00 | 0.00 | 83 | 1002.6 |
| 20260831111304 | 49 | 201 | 5.0 | 9.0 | 0.00 | 0.00 | 0.00 | 84 | 1002.5 |
| 20260831110804 | 49 | 186 | 5.0 | 8.0 | 0.00 | 0.00 | 0.00 | 84 | 1002.5 |
| 20260831110304 | 49 | 192 | 4.0 | 7.0 | 0.00 | 0.00 | 0.00 | 84 | 1002.7 |
| 20260831105804 | 49 | 201 | 5.0 | 8.0 | 0.00 | 0.00 | 0.00 | 84 | 1002.8 |
| 20260831105306 | 49 | 201 | 5.0 | 7.0 | 0.00 | 0.00 | 0.00 | 85 | 1002.9 |
| 20260831104804 | 48 | 198 | 5.0 | 8.0 | 0.00 | 0.00 | 0.00 | 85 | 1002.8 |
| 20260831104304 | 48 | 199 | 5.0 | 9.0 | 0.00 | 0.00 | 0.00 | 86 | 1002.9 |
| 20260831103804 | 48 | 195 | 5.0 | 7.0 | 0.00 | 0.00 | 0.00 | 86 | 1003.0 |
| 20260831103304 | 48 | 192 | 5.0 | 6.0 | 0.00 | 0.00 | 0.00 | 86 | 1003.1 |
| 20260831102804 | 48 | 186 | 3.0 | 6.0 | 0.00 | 0.00 | 0.00 | 86 | 1003.3 |
| 20260831102306 | 47 | 188 | 3.0 | 6.0 | 0.00 | 0.00 | 0.00 | 87 | 1003.3 |
| 20260831101804 | 47 | 183 | 3.0 | 5.0 | 0.00 | 0.00 | 0.00 | 87 | 1003.5 |
| 20260831101304 | 48 | 184 | 3.0 | 5.0 | 0.00 | 0.00 | 0.00 | 87 | 1003.5 |
| 20260831100804 | 48 | 210 | 3.0 | 5.0 | 0.00 | 0.00 | 0.00 | 87 | 1003.6 |
| 20260831100304 | 48 | 205 | 2.0 | 3.0 | 0.00 | 0.00 | 0.00 | 87 | 1003.7 |
| 20260831095804 | 48 | 209 | 3.0 | 5.0 | 0.00 | 0.00 | 0.00 | 87 | 1003.8 |
| 20260831095306 | 48 | 217 | 3.0 | 7.0 | 0.00 | 0.00 | 0.00 | 87 | 1003.8 |
| 20260831094804 | 48 | 211 | 3.0 | 5.0 | 0.00 | 0.00 | 0.00 | 87 | 1003.7 |
| 20260831094305 | 48 | 209 | 3.0 | 6.0 | 0.00 | 0.00 | 0.00 | 87 | 1003.6 |
| 20260831093804 | 48 | 194 | 4.0 | 6.0 | 0.00 | 0.00 | 0.00 | 88 | 1003.6 |
| 20260831093304 | 48 | 198 | 3.0 | 5.0 | 0.00 | 0.00 | 0.00 | 88 | 1003.6 |
| 20260831092804 | 48 | 191 | 2.0 | 5.0 | 0.00 | 0.00 | 0.00 | 88 | 1003.7 |
| 20260831092306 | 48 | 183 | 3.0 | 5.0 | 0.00 | 0.00 | 0.00 | 88 | 1003.7 |
| 20260831091804 | 48 | 191 | 2.0 | 3.0 | 0.00 | 0.00 | 0.00 | 89 | 1004.0 |
| 20260831091304 | 48 | 182 | 2.0 | 5.0 | 0.00 | 0.00 | 0.00 | 89 | 1004.1 |
| 20260831090804 | 48 | 176 | 3.0 | 5.0 | 0.00 | 0.00 | 0.00 | 89 | 1004.2 |
| 20260831090305 | 48 | 177 | 2.0 | 3.0 | 0.00 | 0.00 | 0.00 | 89 | 1004.4 |
| 20260831085804 | 48 | 206 | 0.0 | 0.0 | 0.00 | 0.00 | 0.00 | 89 | 1004.5 |
| 20260831085306 | 48 | 206 | 0.0 | 0.0 | 0.00 | 0.00 | 0.00 | 89 | 1004.6 |
| 20260831084804 | 49 | 206 | 0.0 | 0.0 | 0.00 | 0.00 | 0.00 | 89 | 1004.6 |
| 20260831084304 | 49 | 206 | 0.0 | 0.0 | 0.00 | 0.00 | 0.00 | 89 | 1004.7 |
| 20260831083804 | 49 | 206 | 0.0 | 0.0 | 0.00 | 0.00 | 0.00 | 88 | 1004.7 |
| 20260831083305 | 49 | 206 | 0.0 | 0.0 | 0.00 | 0.00 | 0.00 | 88 | 1004.8 |
| 20260831082804 | 49 | 193 | 1.0 | 2.0 | 0.00 | 0.00 | 0.00 | 88 | 1004.8 |
| 20260831082306 | 49 | 177 | 2.0 | 2.0 | 0.00 | 0.00 | 0.00 | 88 | 1004.8 |
| 20260831081804 | 49 | 168 | 1.0 | 2.0 | 0.00 | 0.00 | 0.00 | 88 | 1005.0 |
| 20260831081304 | 49 | 167 | 1.0 | 1.0 | 0.00 | 0.00 | 0.00 | 88 | 1005.1 |
| 20260831080804 | 49 | 166 | 1.0 | 2.0 | 0.00 | 0.00 | 0.00 | 88 | 1005.2 |
| 20260831080305 | 49 | 73 | 0.0 | 0.0 | 0.00 | 0.00 | 0.00 | 88 | 1005.3 |
| 20260831075804 | 49 | 73 | 0.0 | 0.0 | 0.00 | 0.00 | 0.00 | 88 | 1005.3 |
| 20260831075306 | 49 | 73 | 0.0 | 0.0 | 0.00 | 0.00 | 0.00 | 88 | 1005.3 |
| 20260831074304 | 49 | 73 | 0.0 | 0.0 | 0.00 | 0.00 | 0.00 | 88 | 1005.4 |
| 20260831073804 | 49 | 73 | 0.0 | 0.0 | 0.00 | 0.00 | 0.00 | 87 | 1005.5 |
| 20260831073304 | 49 | 73 | 0.0 | 0.0 | 0.00 | 0.00 | 0.00 | 87 | 1005.6 |
| 20260831072804 | 49 | 73 | 0.0 | 0.0 | 0.00 | 0.00 | 0.00 | 87 | 1005.6 |
| 20260831072306 | 49 | 73 | 0.0 | 0.0 | 0.00 | 0.00 | 0.00 | 87 | 1005.6 |
| 20260831071804 | 49 | 73 | 0.0 | 0.0 | 0.00 | 0.00 | 0.00 | 87 | 1005.6 |
| 20260831071305 | 49 | 73 | 0.0 | 0.0 | 0.00 | 0.00 | 0.00 | 87 | 1005.7 |
| 20260831070804 | 49 | 73 | 0.0 | 0.0 | 0.00 | 0.00 | 0.00 | 87 | 1005.8 |
| 20260831070304 | 49 | 73 | 0.0 | 0.0 | 0.00 | 0.00 | 0.00 | 87 | 1005.8 |
| 20260831065804 | 49 | 73 | 0.0 | 0.0 | 0.00 | 0.00 | 0.00 | 86 | 1005.8 |
| 20260831065306 | 49 | 73 | 0.0 | 0.0 | 0.00 | 0.00 | 0.00 | 86 | 1005.9 |
| 20260831064804 | 50 | 104 | 0.0 | 1.0 | 0.00 | 0.00 | 0.00 | 86 | 1005.8 |
| 20260831064304 | 50 | 121 | 1.0 | 2.0 | 0.00 | 0.00 | 0.00 | 86 | 1006.0 |
| 20260831063803 | 50 | 95 | 0.0 | 0.0 | 0.00 | 0.00 | 0.00 | 86 | 1006.1 |
| 20260831063304 | 50 | 95 | 0.0 | 0.0 | 0.00 | 0.00 | 0.00 | 85 | 1006.2 |
| 20260831062804 | 50 | 95 | 0.0 | 2.0 | 0.00 | 0.00 | 0.00 | 85 | 1006.3 |
| 20260831062306 | 50 | 164 | 2.0 | 2.0 | 0.00 | 0.00 | 0.00 | 85 | 1006.4 |
| 20260831061804 | 50 | 11 | 0.0 | 1.0 | 0.00 | 0.00 | 0.00 | 84 | 1006.5 |
| 20260831061304 | 50 | 32 | 0.0 | 1.0 | 0.00 | 0.00 | 0.00 | 84 | 1006.6 |
| 20260831060804 | 51 | 10 | 0.0 | 2.0 | 0.00 | 0.00 | 0.00 | 84 | 1006.7 |
| 20260831060304 | 51 | 8 | 0.0 | 0.0 | 0.00 | 0.00 | 0.00 | 83 | 1006.8 |
| 20260831055804 | 51 | 8 | 0.0 | 0.0 | 0.00 | 0.00 | 0.00 | 83 | 1006.8 |
| 20260831055306 | 51 | 8 | 0.0 | 0.0 | 0.00 | 0.00 | 0.00 | 83 | 1006.8 |
| 20260831054804 | 51 | 8 | 0.0 | 0.0 | 0.00 | 0.00 | 0.00 | 83 | 1006.9 |
| 20260831054304 | 51 | 8 | 0.0 | 3.0 | 0.00 | 0.00 | 0.00 | 82 | 1007.0 |
| 20260831053804 | 51 | 36 | 2.0 | 2.0 | 0.00 | 0.00 | 0.00 | 82 | 1007.0 |
| 20260831053304 | 51 | 109 | 0.0 | 1.0 | 0.00 | 0.00 | 0.00 | 82 | 1007.1 |
| 20260831052804 | 51 | 114 | 1.0 | 1.0 | 0.00 | 0.00 | 0.00 | 81 | 1007.2 |
| 20260831052307 | 52 | 17 | 0.0 | 1.0 | 0.00 | 0.00 | 0.00 | 81 | 1007.2 |
| 20260831051804 | 52 | 23 | 1.0 | 2.0 | 0.00 | 0.00 | 0.00 | 81 | 1007.2 |
| 20260831051304 | 52 | 76 | 1.0 | 2.0 | 0.00 | 0.00 | 0.00 | 80 | 1007.3 |
| 20260831050805 | 52 | 174 | 0.0 | 0.0 | 0.00 | 0.00 | 0.00 | 80 | 1007.3 |
| 20260831050304 | 52 | 76 | 1.0 | 5.0 | 0.00 | 0.00 | 0.00 | 80 | 1007.4 |
| 20260831045804 | 52 | 43 | 2.0 | 5.0 | 0.00 | 0.00 | 0.00 | 79 | 1007.4 |
| 20260831045306 | 52 | 38 | 0.0 | 2.0 | 0.00 | 0.00 | 0.00 | 79 | 1007.4 |
| 20260831044804 | 52 | 323 | 0.0 | 1.0 | 0.00 | 0.00 | 0.00 | 78 | 1007.4 |
| 20260831044305 | 52 | 322 | 1.0 | 2.0 | 0.00 | 0.00 | 0.00 | 78 | 1007.4 |
| 20260831043804 | 52 | 30 | 2.0 | 5.0 | 0.00 | 0.00 | 0.00 | 78 | 1007.3 |
| 20260831043304 | 53 | 34 | 2.0 | 5.0 | 0.00 | 0.00 | 0.00 | 78 | 1007.3 |
| 20260831042804 | 53 | 44 | 2.0 | 5.0 | 0.00 | 0.00 | 0.00 | 78 | 1007.4 |
| 20260831042307 | 53 | 73 | 0.0 | 0.0 | 0.00 | 0.00 | 0.00 | 77 | 1007.5 |
| 20260831041804 | 53 | 73 | 0.0 | 3.0 | 0.00 | 0.00 | 0.00 | 77 | 1007.5 |
| 20260831041304 | 53 | 5 | 0.0 | 2.0 | 0.00 | 0.00 | 0.00 | 76 | 1007.5 |
| 20260831040804 | 53 | 16 | 1.0 | 2.0 | 0.00 | 0.00 | 0.00 | 76 | 1007.5 |
| 20260831040304 | 53 | 13 | 0.0 | 2.0 | 0.00 | 0.00 | 0.00 | 76 | 1007.6 |
| 20260831035804 | 54 | 22 | 1.0 | 2.0 | 0.00 | 0.00 | 0.00 | 76 | 1007.6 |
| 20260831035306 | 54 | 322 | 0.0 | 0.0 | 0.00 | 0.00 | 0.00 | 76 | 1007.7 |
| 20260831034804 | 54 | 322 | 0.0 | 0.0 | 0.00 | 0.00 | 0.00 | 76 | 1007.6 |
| 20260831034304 | 54 | 322 | 1.0 | 3.0 | 0.00 | 0.00 | 0.00 | 75 | 1007.7 |
| 20260831033804 | 54 | 354 | 2.0 | 3.0 | 0.00 | 0.00 | 0.00 | 75 | 1007.8 |
| 20260831033304 | 54 | 356 | 2.0 | 2.0 | 0.00 | 0.00 | 0.00 | 75 | 1007.9 |
| 20260831032804 | 54 | 353 | 1.0 | 2.0 | 0.00 | 0.00 | 0.00 | 74 | 1008.0 |
| 20260831032306 | 54 | 335 | 0.0 | 0.0 | 0.00 | 0.00 | 0.00 | 74 | 1008.2 |
| 20260831031804 | 54 | 335 | 0.0 | 2.0 | 0.00 | 0.00 | 0.00 | 74 | 1008.3 |
| 20260831031304 | 55 | 2 | 2.0 | 2.0 | 0.00 | 0.00 | 0.00 | 74 | 1008.5 |
| 20260831030804 | 55 | 343 | 1.0 | 2.0 | 0.00 | 0.00 | 0.00 | 73 | 1008.6 |
| 20260831030304 | 55 | 358 | 1.0 | 2.0 | 0.00 | 0.00 | 0.00 | 73 | 1008.7 |
| 20260831025804 | 55 | 12 | 1.0 | 2.0 | 0.00 | 0.00 | 0.00 | 72 | 1008.8 |
| 20260831025306 | 56 | 25 | 1.0 | 2.0 | 0.00 | 0.00 | 0.00 | 71 | 1008.9 |
| 20260831024804 | 56 | 44 | 1.0 | 2.0 | 0.00 | 0.00 | 0.00 | 70 | 1009.0 |
| 20260831024304 | 56 | 140 | 0.0 | 1.0 | 0.00 | 0.00 | 0.00 | 69 | 1009.1 |
| 20260831023804 | 56 | 117 | 0.0 | 1.0 | 0.00 | 0.00 | 0.00 | 69 | 1009.2 |
| 20260831023304 | 56 | 172 | 1.0 | 2.0 | 0.00 | 0.00 | 0.00 | 68 | 1009.4 |
| 20260831022804 | 56 | 184 | 1.0 | 2.0 | 0.00 | 0.00 | 0.00 | 68 | 1009.5 |
| 20260831011804 | 57 | 198 | 3.0 | 5.0 | 0.00 | 0.00 | 0.00 | 65 | 1010.4 |
| 20260831001804 | 57 | 275 | 0.0 | 1.0 | 0.00 | 0.00 | 0.00 | 65 | 1010.9 |
| 20260831001304 | 57 | 258 | 0.0 | 0.0 | 0.00 | 0.00 | 0.00 | 65 | 1011.0 |
| 20260831000803 | 57 | 258 | 0.0 | 1.0 | 0.00 | 0.00 | 0.00 | 65 | 1011.1 |
| 20260831000304 | 58 | 257 | 1.0 | 2.0 | 0.00 | 0.00 | 0.00 | 64 | 1011.2 |
| 20260830235804 | 58 | 224 | 0.0 | 1.0 | 0.00 | 0.00 | 0.00 | 64 | 1011.3 |
| 20260830235306 | 58 | 278 | 1.0 | 3.0 | 0.00 | 0.00 | 0.00 | 63 | 1011.4 |
| 20260830234804 | 58 | 258 | 1.0 | 2.0 | 0.00 | 0.00 | 0.00 | 62 | 1011.6 |
| 20260830234304 | 58 | 255 | 0.0 | 3.0 | 0.00 | 0.00 | 0.00 | 61 | 1011.5 |
| 20260830233804 | 58 | 265 | 1.0 | 5.0 | 0.00 | 0.00 | 0.00 | 61 | 1011.6 |
| 20260830233304 | 58 | 263 | 0.0 | 2.0 | 0.00 | 0.00 | 0.00 | 62 | 1011.7 |
| 20260830232804 | 58 | 287 | 1.0 | 2.0 | 0.00 | 0.00 | 0.00 | 62 | 1011.7 |
| 20260830232306 | 58 | 234 | 3.0 | 6.0 | 0.00 | 0.00 | 0.00 | 62 | 1011.7 |
| 20260830231804 | 58 | 227 | 2.0 | 5.0 | 0.00 | 0.00 | 0.00 | 62 | 1011.8 |
| 20260830230804 | 58 | 202 | 5.0 | 7.0 | 0.00 | 0.00 | 0.00 | 62 | 1011.8 |
| 20260830230304 | 58 | 223 | 3.0 | 6.0 | 0.00 | 0.00 | 0.00 | 62 | 1011.8 |
| 20260830225804 | 58 | 218 | 4.0 | 7.0 | 0.00 | 0.00 | 0.00 | 62 | 1011.8 |
| 20260830225305 | 58 | 198 | 1.0 | 6.0 | 0.00 | 0.00 | 0.00 | 62 | 1011.8 |
| 20260830224804 | 58 | 204 | 5.0 | 6.0 | 0.00 | 0.00 | 0.00 | 62 | 1011.7 |
| 20260830224304 | 58 | 215 | 2.0 | 5.0 | 0.00 | 0.00 | 0.00 | 62 | 1011.8 |
| 20260830223804 | 58 | 193 | 1.0 | 2.0 | 0.00 | 0.00 | 0.00 | 63 | 1011.8 |
| 20260830223304 | 58 | 219 | 0.0 | 2.0 | 0.00 | 0.00 | 0.00 | 63 | 1011.9 |
| 20260830222804 | 58 | 242 | 2.0 | 6.0 | 0.00 | 0.00 | 0.00 | 62 | 1012.0 |
| 20260830222306 | 58 | 212 | 4.0 | 6.0 | 0.00 | 0.00 | 0.00 | 63 | 1012.0 |
| 20260830221804 | 58 | 267 | 2.0 | 6.0 | 0.00 | 0.00 | 0.00 | 63 | 1012.0 |
| 20260830221304 | 58 | 219 | 4.0 | 8.0 | 0.00 | 0.00 | 0.00 | 63 | 1012.2 |
| 20260830220804 | 58 | 188 | 6.0 | 8.0 | 0.00 | 0.00 | 0.00 | 64 | 1012.2 |
| 20260830210304 | 58 | 305 | 1.0 | 1.0 | 0.00 | 0.00 | 0.00 | 63 | 1012.3 |
| 20260830195305 | 56 | 206 | 2.0 | 5.0 | 0.00 | 0.00 | 0.00 | 66 | 1013.1 |
| 20260830194804 | 56 | 203 | 1.0 | 2.0 | 0.00 | 0.00 | 0.00 | 67 | 1013.2 |
| 20260830194304 | 56 | 228 | 0.0 | 1.0 | 0.00 | 0.00 | 0.00 | 68 | 1013.3 |
| 20260830193805 | 55 | 243 | 0.0 | 2.0 | 0.00 | 0.00 | 0.00 | 68 | 1013.4 |
| 20260830193304 | 55 | 247 | 0.0 | 2.0 | 0.00 | 0.00 | 0.00 | 69 | 1013.4 |
| 20260830192804 | 55 | 23 | 0.0 | 1.0 | 0.00 | 0.00 | 0.00 | 69 | 1013.4 |
| 20260830192305 | 55 | 187 | 0.0 | 1.0 | 0.00 | 0.00 | 0.00 | 70 | 1013.4 |
| 20260830191804 | 55 | 186 | 0.0 | 1.0 | 0.00 | 0.00 | 0.00 | 70 | 1013.4 |
| 20260830191304 | 54 | 187 | 2.0 | 3.0 | 0.00 | 0.00 | 0.00 | 71 | 1013.4 |
| 20260830190804 | 54 | 211 | 3.0 | 6.0 | 0.00 | 0.00 | 0.00 | 72 | 1013.5 |
| 20260830190304 | 54 | 171 | 1.0 | 2.0 | 0.00 | 0.00 | 0.00 | 73 | 1013.6 |
| 20260830185804 | 54 | 205 | 1.0 | 2.0 | 0.00 | 0.00 | 0.00 | 73 | 1013.8 |
| 20260830185306 | 53 | 195 | 2.0 | 2.0 | 0.00 | 0.00 | 0.00 | 73 | 1013.8 |
| 20260830174304 | 48 | 185 | 2.0 | 3.0 | 0.00 | 0.00 | 0.00 | 86 | 1014.3 |
| 20260830173804 | 47 | 142 | 0.0 | 2.0 | 0.00 | 0.00 | 0.00 | 88 | 1014.3 |
| 20260830173304 | 46 | 89 | 1.0 | 2.0 | 0.00 | 0.00 | 0.00 | 90 | 1014.3 |
| 20260830172804 | 46 | 155 | 0.0 | 0.0 | 0.00 | 0.00 | 0.00 | 90 | 1014.4 |
| 20260830172306 | 45 | 155 | 0.0 | 0.0 | 0.00 | 0.00 | 0.00 | 91 | 1014.5 |
| 20260830171804 | 44 | 155 | 0.0 | 0.0 | 0.00 | 0.00 | 0.00 | 91 | 1014.5 |
| 20260830171304 | 44 | 155 | 0.0 | 0.0 | 0.00 | 0.00 | 0.00 | 91 | 1014.5 |
| 20260830170804 | 43 | 155 | 0.0 | 0.0 | 0.00 | 0.00 | 0.00 | 91 | 1014.4 |
| 20260830170304 | 43 | 155 | 0.0 | 0.0 | 0.00 | 0.00 | 0.00 | 91 | 1014.4 |
| 20260830165804 | 42 | 155 | 0.0 | 0.0 | 0.00 | 0.00 | 0.00 | 91 | 1014.3 |
| 20260830165306 | 42 | 155 | 0.0 | 0.0 | 0.00 | 0.00 | 0.00 | 91 | 1014.3 |
| 20260830164804 | 42 | 155 | 0.0 | 0.0 | 0.00 | 0.00 | 0.00 | 91 | 1014.2 |
| 20260830164304 | 41 | 155 | 0.0 | 0.0 | 0.00 | 0.00 | 0.00 | 91 | 1014.1 |
| 20260830163804 | 41 | 155 | 0.0 | 0.0 | 0.00 | 0.00 | 0.00 | 91 | 1014.1 |
| 20260830163303 | 41 | 155 | 0.0 | 0.0 | 0.00 | 0.00 | 0.00 | 92 | 1014.1 |
| 20260830162804 | 40 | 155 | 0.0 | 0.0 | 0.00 | 0.00 | 0.00 | 92 | 1014.0 |
| 20260830162306 | 40 | 155 | 0.0 | 2.0 | 0.00 | 0.00 | 0.00 | 92 | 1014.1 |
| 20260830161804 | 40 | 171 | 1.0 | 3.0 | 0.00 | 0.00 | 0.00 | 92 | 1014.1 |
| 20260830161304 | 40 | 96 | 0.0 | 0.0 | 0.00 | 0.00 | 0.00 | 92 | 1014.0 |
| 20260830160803 | 39 | 150 | 1.0 | 1.0 | 0.00 | 0.00 | 0.00 | 92 | 1014.1 |
| 20260830160304 | 39 | 216 | 0.0 | 0.0 | 0.00 | 0.00 | 0.00 | 91 | 1014.2 |
| 20260830155804 | 39 | 216 | 0.0 | 0.0 | 0.00 | 0.00 | 0.00 | 91 | 1014.1 |
| 20260830155306 | 39 | 216 | 0.0 | 0.0 | 0.00 | 0.00 | 0.00 | 91 | 1014.2 |
| 20260830154804 | 39 | 216 | 0.0 | 0.0 | 0.00 | 0.00 | 0.00 | 91 | 1014.2 |
| 20260830154304 | 38 | 216 | 0.0 | 1.0 | 0.00 | 0.00 | 0.00 | 91 | 1014.1 |
| 20260830153304 | 38 | 151 | 0.0 | 1.0 | 0.00 | 0.00 | 0.00 | 91 | 1014.1 |
| 20260830152804 | 38 | 179 | 2.0 | 2.0 | 0.00 | 0.00 | 0.00 | 91 | 1014.1 |
| 20260830152306 | 39 | 192 | 0.0 | 0.0 | 0.00 | 0.00 | 0.00 | 91 | 1014.0 |
| 20260830151804 | 39 | 192 | 0.0 | 0.0 | 0.00 | 0.00 | 0.00 | 91 | 1014.1 |
| 20260830151304 | 39 | 192 | 0.0 | 1.0 | 0.00 | 0.00 | 0.00 | 91 | 1014.0 |
| 20260830150804 | 39 | 121 | 0.0 | 0.0 | 0.00 | 0.00 | 0.00 | 91 | 1014.0 |
| 20260830150304 | 39 | 121 | 0.0 | 0.0 | 0.00 | 0.00 | 0.00 | 91 | 1014.0 |
| 20260830145804 | 39 | 121 | 0.0 | 0.0 | 0.00 | 0.00 | 0.00 | 91 | 1013.9 |
| 20260830145306 | 39 | 121 | 0.0 | 0.0 | 0.00 | 0.00 | 0.00 | 91 | 1013.9 |
| 20260830144804 | 39 | 121 | 0.0 | 0.0 | 0.00 | 0.00 | 0.00 | 91 | 1013.9 |
| 20260830144304 | 39 | 121 | 0.0 | 0.0 | 0.00 | 0.00 | 0.00 | 90 | 1013.8 |
| 20260830143804 | 39 | 121 | 0.0 | 0.0 | 0.00 | 0.00 | 0.00 | 90 | 1013.7 |
| 20260830132804 | 40 | 176 | 0.0 | 0.0 | 0.00 | 0.00 | 0.00 | 89 | 1013.7 |
| 20260830122306 | 41 | 107 | 0.0 | 2.0 | 0.00 | 0.01 | 0.00 | 88 | 1014.0 |
| 20260830121804 | 40 | 169 | 1.0 | 2.0 | 0.00 | 0.01 | 0.00 | 88 | 1014.0 |
| 20260830121304 | 40 | 164 | 0.0 | 0.0 | 0.00 | 0.01 | 0.00 | 88 | 1013.9 |
| 20260830120804 | 40 | 164 | 0.0 | 1.0 | 0.00 | 0.01 | 0.00 | 87 | 1013.9 |
| 20260830120304 | 41 | 124 | 0.0 | 0.0 | 0.00 | 0.01 | 0.00 | 87 | 1013.9 |
| 20260830115804 | 41 | 124 | 0.0 | 2.0 | 0.00 | 0.01 | 0.00 | 87 | 1013.8 |
| 20260830115306 | 41 | 128 | 1.0 | 2.0 | 0.00 | 0.01 | 0.00 | 87 | 1013.7 |
| 20260830114804 | 41 | 119 | 0.0 | 3.0 | 0.00 | 0.01 | 0.00 | 87 | 1013.7 |
| 20260830114304 | 41 | 141 | 0.0 | 2.0 | 0.00 | 0.01 | 0.00 | 86 | 1013.6 |
| 20260830113804 | 41 | 177 | 0.0 | 2.0 | 0.00 | 0.01 | 0.00 | 86 | 1013.5 |
| 20260830113304 | 41 | 179 | 0.0 | 0.0 | 0.00 | 0.01 | 0.00 | 86 | 1013.4 |